Regional Weather Roundup
Issued by NWS

Home | Current Version | Previous Version | Graphics & Text | Print | Product List | Glossary On
Versions: 1 2 3 4 5 6 7 8 9 10 11 12 13 14 15 16 17 18 19 20 21 22 23 24 25 26 27 28 29 30 31 32 33 34 35 36 37 38 39 40 41 42 43 44 45 46 47 48 49 50
000
ASUS43 KLMK 190810
RWRKY
KENTUCKY REGIONAL WEATHER ROUNDUP
NATIONAL WEATHER SERVICE LOUISVILLE KY
400 AM EDT TUE SEP 19 2017

NOTE "FAIR" INDICATES FEW OR NO CLOUDS BELOW 12,000 FEET
WITH NO SIGNIFICANT WEATHER AND/OR OBSTRUCTIONS TO VISIBILITY.

KYZ001>023-026-027-061>063-070>075-190900-
WESTERN AND SOUTH CENTRAL KENTUCKY

CITY           SKY/WX    TMP DP  RH WIND       PRES   REMARKS
PADUCAH        CLOUDY    72  69  90 NW5       29.93S
HENDERSON      CLOUDY    68  67  96 E3        29.92F
OWENSBORO      CLOUDY    68  66  93 E3        29.93F
HOPKINSVILLE   MOCLDY    69  68  94 CALM      29.95F
BOWLING GREEN  FOG       67  67 100 CALM      29.97S VSB 1/2
GLASGOW        MOCLDY   N/A N/A N/A CALM      29.98S FOG
$$

KYZ024-025-028>034-038-045-046-053-190900-
NORTH CENTRAL KENTUCKY

CITY           SKY/WX    TMP DP  RH WIND       PRES   REMARKS
LOUISVILLE/SDF CLOUDY    73  70  90 SE6       29.96S
LOUISVILLE/LOU CLOUDY    72  71  97 S3        29.97F
FORT KNOX      PTCLDY    69  68  94 SE3       29.95S
$$

KYZ035>037-039>044-047>052-055>060-089>105-190900-
NORTHEAST KENTUCKY

CITY           SKY/WX    TMP DP  RH WIND       PRES   REMARKS
LEXINGTON      CLOUDY    71  66  84 S5        30.00S
COVINGTON      CLOUDY    70  66  87 S6        29.97F
FRANKFORT      MOCLDY    71  66  84 CALM      29.96F
$$

KYZ054-064>069-076>088-106>120-190900-
SOUTHEAST KENTUCKY

CITY           SKY/WX    TMP DP  RH WIND       PRES   REMARKS
JACKSON        PTCLDY    64  61  90 CALM      30.02F
LONDON         CLOUDY    66  63  90 CALM      30.01F
SOMERSET       CLOUDY    63  63 100 CALM      30.01F FOG
MIDDLESBORO    CLOUDY    63  63 100 CALM      30.04S FOG
MONTICELLO     MOSUNNY   61  61 100 W7        30.01F FOG
$$




USA.gov is the U.S. government's official web portal to all federal, state and local government web resources and services.